Temperature
18 18 19 20 16 13 15 16 17 18 19 21 21 21 20 20 20 21 22 22 22 22 20 18 16 16 15 15 15 15 14 14 13 13 12 12 12 12 12 12 12 12 12 13 13 12 12 12 12
18 18 19 18 14 14 15 16 17 19 20 21 21 21 20 20 21 21 22 22 22 22 21 19 17 16 16 16 15 15 14 14 13 12 12 12 12 12 12 12 12 12 13 13 14 13 13 13 13
17 18 18 13 13 14 17 18 18 18 20 21 21 21 20 21 21 21 22 22 22 22 21 20 18 17 16 16 16 15 15 14 13 12 12 11 12 12 12 12 12 12 13 14 14 14 14 14 14
17 17 16 13 14 14 15 17 17 16 20 21 21 20 20 21 21 21 22 22 22 21 21 20 19 17 16 16 16 15 15 15 14 13 12 12 12 12 12 12 12 13 13 14 14 14 14 14 14
16 17 14 13 13 14 14 16 17 17 18 20 21 20 21 21 21 21 21 21 21 20 20 20 19 18 17 16 16 15 15 15 15 14 13 12 12 13 13 13 12 13 13 14 14 14 14 14 14
16 13 12 12 13 14 14 17 18 17 18 20 20 20 21 21 21 21 21 20 20 20 20 19 19 18 17 16 16 15 15 15 15 14 13 12 12 13 13 13 13 13 13 13 13 13 13 13 13
14 11 11 12 13 14 15 17 18 18 18 20 21 20 21 21 21 21 20 20 19 19 19 19 19 18 17 16 16 15 15 15 15 15 13 13 13 13 13 13 13 13 13 13 13 13 13 13 12
14 11 12 11 12 14 16 18 19 19 19 20 20 20 21 21 21 21 20 19 19 18 18 18 18 18 18 17 16 15 15 14 14 14 14 13 13 13 13 13 13 13 13 12 12 12 12 12 12
13 10 11 11 12 14 16 17 18 18 19 20 20 20 21 21 21 21 20 19 19 18 18 18 18 18 18 17 16 15 14 14 14 14 14 14 14 13 13 13 13 13 12 12 12 12 12 12 12
12 10 11 12 13 14 15 16 17 18 17 19 20 20 21 21 21 21 21 21 20 20 19 18 18 18 17 17 16 15 14 14 14 14 14 14 13 13 13 13 13 12 12 12 12 12 12 12 12
10 10 11 13 14 14 14 15 16 16 16 18 19 19 20 21 21 21 21 21 21 20 19 19 18 18 17 17 16 15 15 14 14 14 14 13 13 13 13 12 12 12 12 12 12 12 11 11 12
10 10 11 12 14 14 14 14 14 15 16 18 18 18 18 19 20 21 21 21 20 20 20 19 19 18 17 17 16 15 15 14 14 13 13 13 13 12 12 12 12 12 12 11 11 11 11 11 12
10 10 11 12 13 13 13 13 13 14 15 16 17 17 18 18 19 20 20 20 20 20 20 19 19 18 17 17 16 15 15 14 13 13 13 12 12 12 12 12 12 12 11 11 11 11 11 11 12
10 10 10 11 12 12 12 12 12 13 15 15 16 17 18 18 19 19 20 20 20 20 20 20 20 19 18 17 16 15 14 14 13 13 12 12 12 12 12 12 12 11 11 11 11 11 11 12 11
9 9 9 10 11 12 12 11 12 14 15 15 16 16 17 18 19 19 19 20 20 20 20 21 20 19 18 17 16 15 14 14 13 13 13 13 12 12 12 12 11 11 11 11 11 11 11 11 11
9 9 8 9 11 11 11 11 12 14 15 15 16 16 17 18 19 19 19 19 20 20 20 21 20 20 18 17 15 14 14 14 13 13 13 13 12 12 12 12 11 11 11 11 11 11 11 11 10
8 8 8 9 11 11 10 10 12 14 14 14 15 16 16 17 18 19 19 19 20 20 20 20 20 20 18 16 15 14 14 14 14 13 13 13 12 12 12 11 11 11 11 11 11 10 10 9 9
7 7 8 9 10 9 9 9 11 13 13 13 13 14 15 16 18 19 19 19 20 20 20 20 20 19 18 16 15 15 14 14 14 13 13 12 12 12 11 11 11 11 10 10 10 9 9 8 8
7 7 7 8 9 8 8 9 10 11 11 11 12 13 14 16 17 18 18 19 19 19 19 19 19 18 17 16 15 15 14 14 13 13 12 12 12 12 11 11 11 10 10 10 9 8 8 7 7
7 6 6 7 8 9 8 9 10 10 10 12 12 13 14 15 16 17 18 18 18 18 18 18 18 17 17 16 15 15 14 13 13 13 12 12 12 11 11 11 10 10 10 9 8 8 7 6 6
6 6 6 6 7 7 7 8 9 10 11 12 13 13 14 15 16 17 17 17 17 17 17 17 17 16 16 15 15 14 13 13 13 12 12 11 11 11 11 10 10 10 9 9 8 7 6 5 5
6 6 7 7 6 6 7 7 8 9 10 10 11 13 14 15 16 17 17 17 17 17 17 16 16 15 15 15 14 14 13 13 13 13 12 11 11 11 10 10 9 9 8 8 7 6 5 5 4
6 7 7 7 6 6 6 6 8 9 9 10 10 13 14 15 16 17 17 18 17 17 16 15 15 14 14 14 14 14 13 13 13 12 11 11 11 10 10 9 9 8 8 7 6 5 5 4 3
7 7 6 6 6 6 7 6 7 7 9 10 10 13 15 16 16 17 17 17 17 16 15 15 14 14 13 13 13 13 13 13 12 12 11 11 10 10 9 9 8 8 7 6 5 5 4 3 3
6 6 6 6 6 6 7 7 8 8 9 10 11 13 15 16 16 16 16 17 16 15 15 14 14 13 12 13 13 13 13 13 12 12 11 11 10 9 8 8 7 7 6 5 4 4 3 3 2
5 6 6 6 6 5 6 7 9 9 10 12 13 14 15 15 15 15 16 17 16 15 14 14 13 12 12 12 12 12 12 12 12 11 11 10 9 8 8 7 6 6 5 4 3 3 2 2 2
5 5 6 6 6 5 6 7 8 9 9 10 11 12 13 14 15 15 15 15 15 15 14 13 13 12 12 12 12 11 11 11 11 11 10 9 8 7 7 6 6 5 4 3 3 2 2 2 1
5 5 5 5 6 6 6 6 8 9 10 10 10 10 12 13 14 14 14 14 14 14 13 12 12 12 12 11 11 11 11 11 10 10 9 8 7 7 6 6 5 4 3 2 2 2 2 1 1
5 5 5 6 6 5 5 7 9 9 10 10 10 11 12 12 12 12 12 12 13 13 12 12 12 11 11 11 11 11 11 10 10 9 8 7 7 6 5 5 4 3 2 2 2 1 1 1 1
6 6 6 5 5 5 5 7 11 9 10 10 10 11 11 11 11 10 10 10 11 12 12 11 11 11 11 11 10 10 10 9 9 8 7 7 6 5 5 4 3 2 2 1 1 1 1 1 0
Wind_Speed
16 10 3 5 6 4 3 6 4 5 4 2 2 3 4 5 5 4 0 9 7 9 14 16 18 18 17 15 13 11 9 8 8 10 11 9 8 6 5 4 3 3 4 4 4 4 6 6 6
8 4 6 5 4 1 6 6 4 5 5 5 1 2 1 4 2 1 2 8 8 11 14 15 18 18 17 16 14 12 10 9 9 9 8 8 7 6 5 5 4 3 4 4 4 4 4 4 4
4 6 5 4 5 6 6 4 4 7 8 3 1 2 2 3 2 3 4 9 8 9 13 15 18 18 18 16 14 12 11 9 9 8 7 6 7 7 6 5 4 3 3 3 4 3 3 3 3
4 5 5 3 7 7 6 5 5 9 8 4 1 1 2 2 2 3 7 10 10 9 11 15 17 17 17 16 15 13 11 10 9 8 7 6 6 7 7 7 5 4 3 2 2 1 1 1 3
4 4 0 4 8 6 6 6 4 6 6 5 1 2 3 2 2 5 10 11 11 8 9 13 17 17 17 16 15 13 11 10 10 9 8 6 5 5 7 8 7 6 4 2 1 2 3 4 5
4 4 3 7 9 5 6 4 4 5 6 5 3 3 4 1 4 5 9 10 9 9 8 12 17 16 17 16 15 13 12 10 10 9 8 6 4 4 3 8 7 6 4 4 4 5 6 7 7
5 4 6 7 7 7 6 5 5 5 6 5 4 5 4 3 5 7 7 8 7 7 7 8 12 14 16 16 15 14 12 11 9 9 8 6 2 2 1 5 6 5 5 5 6 7 8 8 8
5 5 5 6 7 8 3 3 3 3 7 4 3 5 5 4 8 8 6 6 6 6 7 6 9 11 12 14 15 14 13 11 10 8 7 5 2 2 1 2 4 4 5 6 7 8 9 9 9
4 3 7 7 7 5 3 2 3 4 4 4 3 4 3 4 9 9 5 4 4 6 6 6 6 8 10 12 13 13 12 11 9 7 7 6 2 2 3 3 4 5 6 7 8 9 9 10 11
4 6 7 5 5 3 4 3 5 6 6 5 5 4 3 4 8 9 8 9 10 10 9 7 8 7 8 10 10 10 10 9 8 6 6 5 2 2 4 5 6 6 5 5 7 9 12 12 12
6 6 3 5 5 5 6 6 4 4 6 6 6 7 5 3 7 9 9 8 11 9 10 11 11 9 7 5 7 7 8 7 7 7 6 4 2 1 2 2 3 4 5 7 9 11 11 12 11
4 5 4 4 4 5 7 6 6 8 10 7 6 6 6 6 9 10 10 9 7 8 10 11 12 11 9 7 5 6 5 5 5 7 7 5 3 2 3 4 6 7 7 8 9 8 10 10 10
5 5 5 6 8 8 9 9 9 9 11 11 10 9 10 10 10 10 9 8 7 10 11 12 12 13 11 8 5 5 5 5 6 6 6 6 4 4 5 5 8 9 9 8 6 6 6 6 7
3 3 5 5 7 5 9 13 10 11 8 10 10 11 12 12 12 10 9 10 10 12 13 14 15 15 12 10 7 6 5 6 6 6 7 9 9 7 6 5 6 7 8 8 7 6 5 4 4
1 4 6 7 8 7 7 15 14 13 12 14 14 13 14 14 12 12 12 11 12 12 11 13 15 14 14 12 10 5 6 7 6 7 10 12 12 11 8 6 5 6 8 9 7 6 6 5 5
2 3 4 5 6 7 8 18 7 9 12 14 13 13 13 15 14 12 12 12 12 10 9 11 13 14 14 11 9 6 7 8 7 10 12 14 13 13 10 6 6 7 8 6 5 5 5 6 6
4 5 5 5 5 5 9 10 5 6 9 12 11 11 12 12 13 12 11 11 10 9 8 10 11 14 13 11 9 9 7 7 8 11 12 13 13 14 12 7 6 8 7 4 5 6 5 5 7
6 6 5 5 4 5 9 14 12 11 12 12 12 11 11 11 14 11 9 8 6 5 6 9 10 12 14 12 11 9 9 8 7 9 11 13 13 14 13 8 8 8 6 6 5 6 6 4 5
2 5 8 6 6 8 14 21 16 11 13 14 13 13 12 12 11 8 7 6 5 4 7 9 13 14 14 13 10 10 8 8 8 8 11 13 14 14 12 7 6 6 7 6 6 4 6 6 5
9 13 13 10 7 10 16 26 20 14 17 18 18 18 15 12 8 7 7 6 6 6 8 10 13 13 12 11 8 5 7 7 7 7 9 11 13 13 12 7 7 6 6 7 7 5 3 4 5
11 12 11 9 7 8 13 20 16 14 18 21 19 18 17 15 13 10 10 9 7 8 9 10 12 12 12 13 12 12 8 6 5 7 6 7 12 14 13 10 7 6 7 6 6 6 5 4 4
12 9 12 11 9 7 6 10 7 8 11 14 14 14 15 14 13 11 11 10 10 9 8 10 11 13 14 15 17 18 12 9 6 6 6 7 11 12 12 11 9 6 6 6 5 5 3 3 3
7 6 10 10 10 11 8 10 11 7 10 10 11 13 14 14 14 13 14 13 9 9 10 11 12 12 13 12 17 16 12 9 10 9 10 8 7 9 11 11 9 6 5 6 5 4 4 2 1
6 4 6 7 7 14 13 11 12 7 9 10 13 14 14 14 14 13 12 10 8 9 10 12 13 11 10 11 13 16 18 17 15 11 9 7 6 6 7 9 8 6 5 5 4 4 3 2 0
9 7 5 7 9 9 9 11 13 8 10 12 14 14 13 12 12 12 13 14 14 14 13 13 14 12 10 11 11 14 17 16 16 13 11 9 5 4 6 5 5 4 5 5 4 3 3 1 2
14 13 9 6 6 5 7 13 10 10 12 12 14 13 10 9 10 14 16 17 17 17 15 15 15 13 11 11 11 11 13 11 10 10 9 8 6 5 6 6 6 6 5 4 3 2 2 2 3
8 13 9 7 6 7 8 9 10 8 10 12 14 13 12 10 12 15 15 16 16 17 15 16 16 13 11 11 12 12 12 12 12 10 9 8 7 6 6 6 5 5 4 3 3 2 3 3 3
8 6 6 9 6 9 9 9 9 8 8 10 12 14 14 11 13 14 15 14 14 14 12 12 14 14 12 12 11 12 12 12 12 11 10 8 8 7 7 6 5 4 3 3 3 2 3 4 4
13 11 10 7 6 6 7 9 6 6 3 7 11 12 12 13 15 15 14 13 13 13 14 14 14 14 13 11 12 13 13 13 12 11 9 8 8 7 7 6 5 4 3 3 3 4 4 5 6
15 16 16 10 9 7 7 12 4 4 4 9 13 11 7 8 12 13 14 14 14 15 14 14 14 14 13 12 13 14 13 13 12 10 9 8 8 7 6 6 5 4 4 4 4 5 6 6 7
Wind_Direction
333 340 42 51 47 45 264 254 246 282 270 258 235 213 191 193 179 196 155 158 145 149 167 175 165 161 158 155 153 152 152 149 149 149 143 139 138 137 140 132 113 79 58 57 64 61 62 60 56
333 358 46 56 89 305 269 253 260 265 290 306 227 117 306 270 276 150 160 171 152 153 161 166 167 164 161 158 157 157 157 155 156 154 150 147 149 155 154 144 123 87 67 68 74 71 66 59 44
4 45 72 79 147 191 237 241 252 293 296 284 128 135 213 252 259 210 196 158 143 150 156 163 167 167 164 162 162 163 162 161 162 159 160 164 172 179 174 162 143 111 88 84 87 81 68 48 22
46 41 58 106 223 220 228 259 303 321 324 324 173 159 249 260 258 204 139 143 142 148 153 163 167 170 169 167 167 168 168 168 169 167 168 179 198 206 201 187 170 157 148 128 105 86 36 338 320
58 78 86 251 242 240 245 261 281 306 296 305 229 191 271 334 20 122 138 146 151 153 157 166 170 175 174 172 172 173 174 175 177 180 183 195 217 238 226 199 184 184 193 213 265 313 323 319 314
60 83 164 235 248 254 259 251 281 283 276 284 192 175 269 7 117 156 150 151 158 161 163 172 178 180 178 177 176 177 178 180 184 190 195 203 234 291 241 189 188 201 223 254 284 309 318 317 316
125 135 206 227 255 260 245 213 222 252 271 264 193 164 278 292 148 160 153 142 154 163 165 174 181 182 180 179 179 182 183 183 185 190 196 198 224 332 114 172 196 218 248 276 298 315 321 322 322
141 143 215 223 233 260 251 223 239 236 259 269 173 175 237 248 131 132 135 131 155 171 178 175 179 178 176 178 182 184 185 185 186 187 184 179 201 342 42 198 223 244 273 296 312 324 329 336 342
106 147 220 215 204 248 280 278 307 311 289 301 242 226 274 114 118 115 129 158 172 190 192 183 179 177 174 176 184 184 186 188 187 184 177 175 199 294 316 292 277 283 301 319 335 353 13 24 27
143 206 230 206 202 249 317 310 309 335 334 317 309 296 344 140 150 154 170 190 197 200 197 190 189 183 175 182 181 180 182 187 182 174 171 173 188 284 305 304 307 317 336 2 26 43 46 47 42
174 217 246 248 258 279 291 285 275 273 274 252 270 303 326 230 193 189 195 201 206 202 199 197 197 191 181 178 171 172 175 179 180 176 174 165 148 4 356 31 36 45 59 65 64 59 52 49 45
204 228 241 275 304 289 278 279 272 234 240 259 273 291 308 267 228 212 211 215 201 196 202 200 198 196 191 181 173 170 170 175 179 180 172 151 121 93 85 81 76 72 74 73 66 63 54 49 46
233 255 260 276 290 281 279 268 266 251 252 272 287 288 276 265 253 246 240 237 204 207 208 200 196 198 192 182 174 170 174 178 181 170 168 155 134 117 97 85 78 71 71 72 71 65 55 45 39
240 282 298 286 280 277 265 269 256 252 246 263 267 268 265 254 246 248 251 250 232 222 218 202 196 193 186 184 180 178 171 164 158 163 166 155 137 122 108 93 81 75 75 77 75 65 52 41 35
239 289 290 251 242 243 258 268 242 244 241 251 252 252 257 256 246 234 233 236 239 234 224 202 196 185 182 182 180 166 156 151 149 148 143 135 127 121 112 99 87 79 78 75 68 57 46 35 24
264 259 271 273 233 224 210 262 265 226 228 242 243 241 244 250 246 238 236 240 243 235 218 199 190 181 179 172 160 146 145 140 136 129 123 121 121 119 108 98 88 82 76 69 62 41 37 24 10
242 243 239 273 247 252 225 265 289 259 246 253 253 248 244 250 257 253 243 240 238 223 202 182 173 171 164 147 134 126 124 120 122 118 115 114 114 112 106 99 93 87 71 52 56 46 39 22 358
223 229 238 239 299 323 278 273 282 296 286 274 269 262 254 249 253 260 251 234 217 199 174 158 149 149 140 129 120 113 106 104 104 107 111 114 112 110 106 98 90 84 71 53 49 50 38 27 353
251 265 268 269 308 312 280 280 277 267 270 271 271 267 258 252 255 256 234 207 183 163 148 146 146 148 145 141 135 129 121 114 103 101 107 112 113 110 105 100 86 78 76 64 49 47 33 17 2
248 262 269 278 265 276 281 280 276 254 255 257 259 261 259 254 253 232 210 195 195 176 155 149 152 154 152 144 130 119 120 108 100 99 100 108 110 106 102 99 95 88 85 66 51 48 43 16 24
236 244 254 262 302 280 288 285 261 241 236 244 245 244 246 242 237 221 205 203 196 186 169 157 153 147 139 131 121 117 107 105 107 107 99 95 101 100 102 101 98 87 85 78 64 56 61 20 5
250 228 234 247 257 266 234 284 257 231 244 245 245 240 238 234 224 210 199 199 197 186 162 151 149 146 146 142 142 144 146 144 141 132 118 99 95 98 99 98 93 85 81 77 67 66 63 57 14
232 222 224 231 238 256 235 265 275 207 246 249 248 242 235 228 216 204 198 196 181 161 154 149 146 148 152 151 151 147 139 126 126 120 113 100 87 90 93 92 87 81 79 77 66 59 52 63 71
219 263 262 242 242 256 226 225 272 202 228 237 243 241 235 225 212 202 186 161 150 151 149 149 148 150 151 149 150 146 140 138 136 131 122 109 98 85 84 87 85 82 77 70 60 53 44 39 11
195 218 238 224 223 247 178 211 255 214 214 221 238 245 239 225 202 183 168 165 164 163 159 155 151 149 147 145 142 144 143 143 143 139 131 125 113 99 90 87 82 75 70 67 58 45 17 349 323
195 200 216 230 232 264 211 232 254 233 229 234 239 243 241 217 192 182 179 174 170 167 162 158 153 148 144 141 132 129 129 129 129 125 126 120 116 114 107 94 83 74 66 61 49 29 340 329 309
194 210 219 248 250 261 249 264 289 253 252 254 254 251 240 213 190 184 180 175 170 166 164 159 150 144 139 134 128 124 122 123 123 115 108 110 112 111 100 91 83 70 58 44 28 352 321 315 291
210 181 187 217 239 246 256 256 253 268 278 283 275 261 245 214 191 182 176 170 164 156 145 141 142 140 133 130 131 127 120 118 118 116 113 110 105 101 98 88 78 61 43 20 4 330 315 313 296
200 211 216 223 218 220 259 258 220 225 267 306 305 286 251 209 188 178 168 155 145 139 138 136 133 131 129 125 122 120 116 114 112 112 112 110 104 101 95 87 73 53 31 4 354 329 316 313 304
209 215 211 223 226 217 243 261 215 235 316 341 330 317 281 198 170 156 146 141 140 139 136 135 134 131 128 124 120 116 115 113 111 111 110 109 105 98 93 83 68 44 16 354 345 326 322 311 306
Height
1507 1507 1507 1506 1509 1521 1520 1510 1503 1499 1496 1494 1493 1492 1492 1493 1495 1497 1492 1492 1493 1494 1496 1497 1500 1502 1504 1505 1507 1507 1508 1507 1507 1509 1510 1511 1512 1513 1513 1513 1512 1512 1512 1511 1512 1513 1514 1515 1515
1506 1506 1507 1506 1517 1526 1521 1507 1502 1497 1495 1493 1491 1490 1490 1490 1489 1489 1489 1491 1492 1494 1495 1497 1499 1502 1503 1505 1506 1507 1507 1507 1508 1509 1510 1512 1513 1513 1513 1513 1513 1512 1512 1512 1512 1513 1514 1514 1515
1505 1505 1507 1509 1518 1522 1512 1501 1499 1495 1493 1492 1490 1490 1490 1490 1489 1489 1490 1491 1492 1494 1495 1497 1499 1502 1503 1505 1506 1507 1507 1507 1508 1509 1510 1512 1513 1514 1514 1514 1514 1513 1513 1513 1513 1513 1514 1514 1515
1505 1506 1506 1513 1514 1511 1505 1499 1498 1495 1493 1491 1490 1490 1490 1490 1490 1490 1491 1492 1493 1494 1495 1497 1499 1502 1503 1505 1506 1507 1507 1508 1508 1509 1510 1512 1513 1514 1515 1515 1515 1515 1514 1514 1514 1515 1515 1515 1515
1503 1504 1509 1514 1511 1505 1500 1497 1497 1496 1494 1492 1490 1489 1488 1489 1489 1490 1491 1492 1493 1494 1496 1497 1499 1501 1503 1504 1506 1507 1507 1508 1508 1509 1510 1512 1514 1515 1516 1516 1516 1516 1516 1516 1516 1516 1516 1516 1515
1502 1503 1515 1515 1507 1502 1498 1496 1496 1494 1492 1491 1490 1488 1488 1489 1488 1490 1491 1493 1494 1495 1496 1497 1499 1501 1503 1504 1506 1507 1508 1508 1509 1509 1511 1512 1514 1515 1516 1517 1517 1517 1516 1516 1516 1516 1516 1515 1515
1502 1506 1510 1508 1505 1501 1496 1495 1494 1493 1491 1490 1489 1488 1487 1488 1488 1489 1491 1493 1494 1495 1496 1498 1499 1501 1502 1504 1505 1507 1508 1508 1509 1510 1511 1513 1514 1515 1516 1517 1517 1517 1517 1517 1516 1516 1516 1515 1515
1498 1503 1505 1505 1503 1498 1494 1493 1492 1492 1490 1490 1490 1488 1487 1488 1488 1489 1490 1492 1493 1494 1496 1497 1499 1500 1502 1503 1505 1506 1507 1508 1509 1510 1511 1512 1514 1515 1516 1517 1517 1517 1517 1517 1517 1516 1516 1515 1514
1497 1504 1504 1502 1500 1496 1492 1491 1491 1491 1490 1489 1488 1488 1488 1488 1488 1488 1489 1490 1491 1493 1494 1496 1498 1499 1501 1502 1504 1506 1507 1508 1509 1510 1511 1512 1513 1515 1516 1517 1517 1517 1517 1517 1517 1516 1515 1515 1514
1495 1500 1496 1494 1493 1492 1492 1491 1491 1490 1489 1488 1488 1488 1487 1487 1487 1487 1488 1488 1489 1491 1493 1495 1497 1498 1500 1501 1503 1505 1506 1507 1508 1509 1510 1512 1513 1514 1515 1516 1516 1516 1517 1517 1516 1516 1515 1514 1512
1493 1495 1492 1491 1491 1491 1490 1490 1490 1490 1489 1488 1488 1487 1487 1486 1485 1486 1486 1487 1488 1490 1492 1493 1495 1497 1498 1500 1502 1504 1505 1506 1507 1508 1510 1512 1513 1514 1515 1516 1516 1516 1516 1516 1516 1515 1514 1512 1511
1491 1490 1490 1490 1489 1489 1488 1487 1487 1486 1486 1486 1486 1486 1486 1485 1484 1484 1485 1486 1487 1488 1490 1492 1493 1495 1497 1499 1501 1502 1504 1505 1506 1508 1510 1511 1513 1514 1515 1515 1516 1516 1516 1515 1514 1513 1512 1510 1509
1489 1488 1488 1488 1487 1487 1486 1484 1483 1480 1481 1482 1482 1483 1483 1483 1483 1483 1484 1484 1485 1485 1487 1488 1490 1492 1494 1497 1499 1501 1503 1504 1506 1507 1509 1511 1512 1513 1514 1515 1515 1515 1514 1514 1513 1512 1510 1509 1507
1486 1486 1486 1485 1484 1483 1482 1478 1478 1472 1476 1477 1477 1477 1478 1479 1479 1480 1480 1481 1482 1482 1483 1484 1486 1488 1491 1494 1496 1499 1501 1503 1505 1507 1508 1510 1511 1513 1513 1514 1513 1513 1513 1512 1511 1510 1508 1506 1505
1485 1485 1484 1481 1480 1479 1479 1471 1467 1468 1471 1470 1470 1471 1472 1473 1473 1474 1475 1476 1477 1478 1479 1479 1481 1483 1487 1490 1494 1496 1499 1501 1503 1505 1507 1509 1511 1511 1512 1512 1512 1512 1511 1510 1508 1507 1505 1504 1502
1483 1484 1485 1479 1476 1473 1479 1466 1463 1463 1462 1461 1462 1463 1464 1466 1467 1468 1469 1471 1472 1472 1473 1474 1475 1477 1481 1486 1490 1493 1496 1498 1501 1504 1506 1507 1509 1510 1510 1511 1510 1510 1509 1508 1506 1505 1502 1500 1498
1484 1485 1483 1479 1473 1472 1472 1464 1459 1457 1458 1456 1456 1456 1457 1458 1459 1461 1463 1464 1465 1466 1467 1469 1470 1472 1476 1481 1485 1489 1493 1496 1498 1501 1503 1505 1506 1508 1509 1509 1509 1508 1508 1506 1504 1501 1499 1497 1495
1484 1483 1480 1478 1473 1472 1470 1462 1459 1457 1456 1452 1450 1450 1450 1451 1452 1455 1457 1457 1458 1459 1461 1463 1465 1467 1471 1476 1480 1485 1489 1492 1495 1498 1501 1503 1504 1506 1507 1508 1508 1507 1506 1503 1501 1499 1496 1494 1492
1481 1481 1481 1478 1474 1474 1467 1458 1454 1453 1451 1448 1445 1444 1443 1444 1447 1449 1450 1451 1452 1453 1456 1458 1461 1463 1466 1470 1474 1479 1484 1489 1492 1496 1498 1501 1502 1504 1505 1506 1506 1505 1503 1501 1499 1497 1494 1492 1489
1481 1482 1480 1478 1475 1472 1464 1451 1446 1444 1442 1440 1439 1437 1437 1438 1440 1442 1445 1446 1448 1449 1451 1454 1456 1459 1462 1466 1471 1476 1481 1486 1490 1493 1496 1499 1501 1503 1503 1504 1503 1502 1500 1498 1497 1495 1493 1490 1488
1479 1480 1479 1479 1475 1471 1467 1444 1434 1429 1428 1427 1427 1427 1428 1431 1433 1436 1439 1442 1444 1446 1448 1450 1453 1455 1459 1463 1468 1473 1479 1483 1487 1491 1494 1497 1499 1501 1501 1501 1500 1499 1498 1496 1495 1493 1491 1490 1488
1475 1473 1474 1475 1477 1473 1467 1452 1428 1424 1421 1419 1419 1418 1419 1422 1425 1428 1432 1436 1439 1441 1444 1447 1450 1452 1456 1460 1465 1470 1475 1480 1485 1488 1492 1495 1497 1498 1499 1498 1498 1497 1496 1494 1493 1491 1490 1488 1487
1471 1469 1470 1470 1472 1470 1464 1461 1424 1421 1418 1415 1413 1411 1411 1413 1416 1419 1424 1429 1433 1436 1440 1443 1446 1450 1454 1458 1464 1469 1474 1478 1482 1486 1489 1492 1495 1496 1496 1496 1495 1494 1494 1493 1491 1490 1488 1486 1485
1467 1469 1469 1467 1468 1459 1450 1457 1425 1420 1413 1410 1406 1403 1402 1404 1407 1411 1416 1422 1426 1431 1436 1439 1442 1446 1451 1457 1462 1466 1471 1475 1479 1483 1487 1490 1493 1494 1494 1494 1493 1492 1491 1490 1489 1488 1486 1484 1482
1466 1470 1467 1462 1456 1448 1441 1440 1416 1409 1404 1401 1399 1396 1395 1396 1399 1403 1408 1413 1420 1426 1431 1435 1439 1444 1449 1455 1460 1464 1469 1473 1478 1481 1485 1488 1490 1492 1492 1492 1491 1490 1489 1488 1487 1485 1484 1482 1480
1457 1460 1461 1458 1452 1449 1439 1426 1408 1400 1396 1393 1391 1390 1390 1391 1393 1396 1401 1407 1413 1420 1426 1431 1436 1441 1447 1453 1458 1462 1467 1472 1477 1481 1484 1487 1488 1489 1490 1489 1488 1487 1486 1485 1483 1482 1481 1478 1476
1452 1452 1450 1452 1446 1445 1433 1417 1404 1394 1392 1389 1387 1384 1384 1385 1388 1391 1396 1401 1408 1414 1421 1427 1433 1439 1446 1451 1456 1460 1465 1470 1475 1479 1482 1485 1486 1487 1487 1487 1486 1484 1483 1481 1480 1479 1477 1474 1472
1446 1446 1448 1446 1440 1435 1427 1418 1404 1392 1390 1387 1384 1380 1378 1380 1382 1385 1390 1396 1403 1411 1418 1426 1432 1438 1445 1450 1455 1459 1464 1469 1474 1478 1480 1482 1484 1484 1484 1483 1482 1481 1479 1478 1477 1475 1472 1470 1467
1440 1441 1439 1437 1434 1436 1428 1407 1388 1387 1386 1384 1379 1375 1371 1372 1375 1379 1384 1391 1399 1407 1416 1423 1430 1437 1443 1448 1453 1458 1462 1467 1472 1475 1478 1480 1481 1481 1481 1480 1479 1478 1476 1474 1473 1470 1468 1465 1462
1426 1426 1428 1429 1425 1425 1421 1398 1381 1382 1380 1378 1374 1370 1366 1366 1370 1375 1381 1388 1396 1405 1413 1421 1429 1435 1442 1447 1453 1457 1462 1466 1470 1473 1475 1477 1478 1478 1477 1476 1475 1474 1473 1471 1468 1466 1463 1460 1456